Weather History for St-Nazaire, France

Change the Weather History Date:

Monday, December 17, 2012

  Actual Average Record
Temperature  
Mean Temperature 48 °F -  
Max Temperature 51 °F 46 °F 57 °F (2004)
Min Temperature 46 °F 37 °F 26 °F (2001)
Degree Days  
Heating Degree Days 16    
Moisture  
Dew Point 43 °F    
Average Humidity 75    
Maximum Humidity 87    
Minimum Humidity 62    
Precipitation  
Precipitation 0.00 in - - ()
Sea Level Pressure  
Sea Level Pressure 29.86 in    
Wind  
Wind Speed 13 mph ()    
Max Wind Speed 23 mph    
Max Gust Speed 29 mph    
Visibility 6.2 miles    
Events Rain    
Averages and records for this station are not official NWS values.
T = Trace of Precipitation, MM = Missing Value Source: Averaged Metar Reports

Daily Weather History Graph

Daily Weather History Graph

Search for Another Location

Airport:

Trip Planner

Search our weather history database for the weather conditions in past years. The results will help you decide how hot, cold, wet, or windy it might be!

Date:

Astronomy

Dec. 17, 2012 Rise Set
Actual Time 8:50 AM CET 5:19 PM CET
Civil Twilight 8:14 AM CET 5:55 PM CET
Nautical Twilight 7:35 AM CET 6:34 PM CET
Astronomical Twilight 6:58 AM CET 7:11 PM CET
Moon 11:35 AM CET (12/17) 10:42 PM CET (12/17)
Length of Visible Light 9h 40m
Length of Day
8h 28m
Waxing Crescent, 22% of the Moon is Illuminated
Dec 17
Waxing Crescent
Dec 20
First Quarter
Dec 28
Full
Jan 5
Last Quarter
Jan 11
New

Hourly Weather History & Observations

Time (CET) Temp. Windchill Dew Point Humidity Pressure Visibility Wind Dir Wind Speed Gust Speed Precip Events Conditions
12:00 AM 51.8 °F - 46.4 °F 82% 29.77 in 6.2 mi WSW 11.5 mph - N/A   Overcast
12:30 AM 51.8 °F - 44.6 °F 76% 29.77 in 6.2 mi West 15.0 mph 28.8 mph N/A   Mostly Cloudy
1:00 AM 51.8 °F - 46.4 °F 82% 29.77 in 6.2 mi West 15.0 mph - N/A   Mostly Cloudy
1:30 AM 51.8 °F - 46.4 °F 82% 29.77 in 6.2 mi West 16.1 mph - N/A   Overcast
2:00 AM 51.8 °F - 44.6 °F 76% 29.77 in 6.2 mi West 16.1 mph - N/A   Overcast
2:30 AM 51.8 °F - 46.4 °F 82% 29.77 in 6.2 mi West 17.3 mph - N/A   Overcast
3:00 AM 51.8 °F - 44.6 °F 76% 29.77 in 6.2 mi West 19.6 mph - N/A   Mostly Cloudy
3:30 AM 51.8 °F - 44.6 °F 76% 29.77 in 6.2 mi West 18.4 mph - N/A   Mostly Cloudy
4:00 AM 51.8 °F - 46.4 °F 82% 29.77 in 6.2 mi West 13.8 mph - N/A   Mostly Cloudy
4:30 AM 48.2 °F - 42.8 °F 82% 29.80 in 5.0 mi West 20.7 mph - N/A Rain Light Rain
5:00 AM 48.2 °F - 42.8 °F 82% 29.77 in 6.2 mi West 13.8 mph - N/A   Mostly Cloudy
5:30 AM 50.0 °F - 44.6 °F 82% 29.77 in 6.2 mi WSW 13.8 mph - N/A Rain Light Rain
6:00 AM 50.0 °F - 42.8 °F 76% 29.77 in 6.2 mi WSW 17.3 mph - N/A   Unknown
6:30 AM 50.0 °F - 42.8 °F 76% 29.77 in 6.2 mi West 16.1 mph - N/A   Unknown
7:00 AM 51.8 °F - 42.8 °F 71% 29.77 in 6.2 mi West 23.0 mph - N/A   Mostly Cloudy
7:30 AM 50.0 °F - 42.8 °F 76% 29.77 in 6.2 mi West 16.1 mph - N/A   Partly Cloudy
8:00 AM 51.8 °F - 39.2 °F 62% 29.80 in 6.2 mi West 19.6 mph - N/A   Scattered Clouds
8:30 AM 50.0 °F - 41.0 °F 71% 29.80 in 6.2 mi West 13.8 mph - N/A   Unknown
9:00 AM 50.0 °F - 41.0 °F 71% 29.83 in 6.2 mi West 20.7 mph - N/A   Partly Cloudy
9:30 AM 50.0 °F - 41.0 °F 71% 29.83 in 6.2 mi West 17.3 mph - N/A   Unknown
10:00 AM 51.8 °F - 42.8 °F 71% 29.86 in 6.2 mi West 12.7 mph - N/A   Partly Cloudy
10:30 AM 51.8 °F - 42.8 °F 71% 29.86 in 6.2 mi West 11.5 mph - N/A   Unknown
11:00 AM 51.8 °F - 42.8 °F 71% 29.89 in 6.2 mi West 12.7 mph 27.6 mph N/A   Mostly Cloudy
11:30 AM 51.8 °F - 42.8 °F 71% 29.89 in 6.2 mi West 9.2 mph - N/A   Mostly Cloudy
12:00 PM 51.8 °F - 42.8 °F 71% 29.89 in 6.2 mi WSW 8.1 mph - N/A   Partly Cloudy
12:30 PM 48.2 °F - 41.0 °F 76% 29.89 in 6.2 mi West 13.8 mph - N/A Rain Light Rain
1:00 PM 50.0 °F - 44.6 °F 82% 29.89 in 6.2 mi West 8.1 mph - N/A   Mostly Cloudy
1:30 PM 51.8 °F - 42.8 °F 71% 29.89 in 6.2 mi West 12.7 mph - N/A   Unknown
2:00 PM 51.8 °F - 42.8 °F 71% 29.89 in 6.2 mi West 13.8 mph 25.3 mph N/A Rain Light Rain
2:30 PM 51.8 °F - 42.8 °F 71% 29.89 in 6.2 mi West 11.5 mph - N/A   Unknown
3:00 PM 51.8 °F - 42.8 °F 71% 29.89 in 6.2 mi West 13.8 mph - N/A   Partly Cloudy
3:30 PM 51.8 °F - 44.6 °F 76% 29.89 in 6.2 mi West 13.8 mph - N/A   Unknown
4:00 PM 51.8 °F - 42.8 °F 71% 29.89 in 6.2 mi West 17.3 mph - N/A   Partly Cloudy
4:30 PM 51.8 °F - 41.0 °F 67% 29.89 in 6.2 mi West 17.3 mph - N/A   Partly Cloudy
5:00 PM 50.0 °F - 41.0 °F 71% 29.92 in 6.2 mi West 13.8 mph - N/A   Unknown
5:30 PM 50.0 °F - 41.0 °F 71% 29.92 in 6.2 mi West 12.7 mph - N/A   Unknown
6:00 PM 50.0 °F - 41.0 °F 71% 29.92 in 6.2 mi West 18.4 mph - N/A   Unknown
6:30 PM 50.0 °F - 41.0 °F 71% 29.95 in 6.2 mi West 12.7 mph - N/A   Unknown
7:00 PM 48.2 °F - 41.0 °F 76% 29.95 in 6.2 mi West 6.9 mph - N/A   Unknown
7:30 PM 48.2 °F - 41.0 °F 76% 29.95 in 6.2 mi West 9.2 mph - N/A   Unknown
8:00 PM 50.0 °F - 42.8 °F 76% 29.98 in 6.2 mi West 8.1 mph - N/A   Mostly Cloudy
8:30 PM 48.2 °F - 42.8 °F 82% 29.98 in 6.2 mi West 9.2 mph - N/A   Mostly Cloudy
9:00 PM 48.2 °F - 42.8 °F 82% 29.98 in 6.2 mi West 8.1 mph - N/A   Unknown
9:30 PM 46.4 °F 43.5 °F 41.0 °F 81% 29.98 in 6.2 mi WSW 5.8 mph - N/A   Unknown
10:00 PM 46.4 °F 42.9 °F 42.8 °F 87% 29.98 in 6.2 mi WSW 6.9 mph - N/A   Mostly Cloudy
10:30 PM 50.0 °F - 42.8 °F 76% 29.98 in 6.2 mi West 11.5 mph - N/A   Unknown